User: anonymous   Login
Location: Unspecified
(0.0000°N, 0.0000°E)
Time: 22:45:05
(UTC+00:00)
Language:

JAS-1B - Orbit

View from above orbital plane
View from above orbital plane
View from above satellite
View from above satellite

Ground track
Ground track

The orbit data is extracted from the following two-line orbital elements,

1 20480U 90013C   18343.94237170 -.00000048 +00000-0 -27143-4 0  9994
2 20480 099.0349 021.2230 0539478 246.5640 107.7872 12.83420246351040
Epoch (UTC): 09 December 2018 22:37:00
Eccentricity: 0.0539478
inclination: 99.0349°
perigee height: 912 km
apogee height: 1743 km
right ascension of ascending node: 21.2230°
argument of perigee: 246.5640°
revolutions per day: 12.83420246
mean anomaly at epoch: 107.7872°
orbit number at epoch: 35104

The dashed part of the orbit path shows where the satellite is in the earth's shadow,  

DLR